Torna al catalogo

COSMOS 2499 DEB

LostPO
NORAD 49935·DEBRIS·🇷🇺 Russia

Lanciato May 23, 2014 da Plesetsk Cosmodrome

Loading…

Prossimi Passaggi (prossime 24 ore)

TLE

ObsoletoSource: Space-Track

Epoca: Jan 12, 2022, 09:40 UTC

1 49935U 14028S   22012.40296968 -.00000559  00000-0 -17343-2 0  9997
2 49935  82.5645 262.6924 0279276 180.1076 180.0022 12.94008447  9437

Traccia COSMOS 2499 DEB in tempo reale con AllMySat

Download on the App Store